• In Netherlands
  • List of Countries
  • For 7 days
  • Water Temperature
  • Satellite Maps
  • Weather Map
  • Weather Widgets
  • user-avatar
    Login

    Hourly Weather Yerevan

    Today, 28 June, Wednesday

    Time Temperature Precipitation Wind Pressure Humidity
    00:00 +25°C° 0.1 mm 2 mps 689 mmHg 64%
    01:00 +25°C° 0 mm 2 mps 688 mmHg 65%
    02:00 +24°C° 0 mm 2 mps 688 mmHg 67%
    03:00 +24°C° 0 mm 2 mps 688 mmHg 68%
    04:00 +25°C° 0 mm 2 mps 688 mmHg 66%
    05:00 +25°C° 0 mm 1 mps 689 mmHg 65%
    06:00 +26°C° 0 mm 1 mps 689 mmHg 63%
    07:00 +28°C° 0 mm 1 mps 689 mmHg 54%
    08:00 +31°C° 0 mm 1 mps 689 mmHg 45%
    09:00 +33°C° 0 mm 1 mps 689 mmHg 36%
    10:00 +35°C° 0 mm 1 mps 689 mmHg 32%
    11:00 +36°C° 0 mm 1 mps 689 mmHg 27%
    12:00 +39°C° 0 mm 1 mps 688 mmHg 22%
    13:00 +39°C° 0 mm 1 mps 688 mmHg 22%
    14:00 +40°C° 0 mm 1 mps 688 mmHg 21%
    15:00 +40°C° 0 mm 1 mps 687 mmHg 20%
    16:00 +39°C° 0.2 mm 2 mps 687 mmHg 24%
    17:00 +38°C° 0.2 mm 2 mps 687 mmHg 28%
    18:00 +36°C° 0.2 mm 2 mps 687 mmHg 32%
    19:00 +34°C° 0.1 mm 2 mps 687 mmHg 38%
    20:00 +30°C° 0.1 mm 3 mps 687 mmHg 45%
    21:00 +28°C° 0.1 mm 3 mps 687 mmHg 52%
    22:00 +27°C° 0.1 mm 3 mps 687 mmHg 55%
    23:00 +26°C° 0.1 mm 2 mps 687 mmHg 59%

    Tomorrow, 29 June, Thursday

    Time Temperature Precipitation Wind Pressure Humidity
    00:00 +25°C° 0.1 mm 2 mps 688 mmHg 62%
    01:00 +24°C° 0.2 mm 2 mps 687 mmHg 65%
    02:00 +24°C° 0.2 mm 2 mps 687 mmHg 67%
    03:00 +23°C° 0.2 mm 2 mps 687 mmHg 70%
    04:00 +24°C° 0.1 mm 2 mps 687 mmHg 68%
    05:00 +24°C° 0.1 mm 2 mps 688 mmHg 67%
    06:00 +25°C° 0.1 mm 2 mps 688 mmHg 65%
    07:00 +27°C° 0 mm 2 mps 688 mmHg 58%
    08:00 +29°C° 0 mm 2 mps 688 mmHg 50%
    09:00 +31°C° 0 mm 1 mps 688 mmHg 42%
    10:00 +33°C° 0.1 mm 1 mps 688 mmHg 37%
    11:00 +34°C° 0.1 mm 1 mps 688 mmHg 33%
    12:00 +36°C° 0.1 mm 1 mps 688 mmHg 28%
    13:00 +36°C° 0.2 mm 1 mps 688 mmHg 28%
    14:00 +36°C° 0.2 mm 1 mps 687 mmHg 28%
    15:00 +37°C° 0.2 mm 2 mps 687 mmHg 27%
    16:00 +36°C° 0.4 mm 2 mps 687 mmHg 31%
    17:00 +35°C° 0.4 mm 3 mps 687 mmHg 35%
    18:00 +34°C° 0.4 mm 3 mps 686 mmHg 39%
    19:00 +31°C° 0.4 mm 3 mps 687 mmHg 46%
    20:00 +28°C° 0.4 mm 3 mps 687 mmHg 53%
    21:00 +26°C° 0.4 mm 3 mps 687 mmHg 60%
    22:00 +25°C° 0.2 mm 2 mps 687 mmHg 63%
    23:00 +24°C° 0.2 mm 2 mps 688 mmHg 65%

    Day after tomorrow, 30 June, Friday

    Time Temperature Precipitation Wind Pressure Humidity
    00:00 +23°C° 0.2 mm 2 mps 688 mmHg 68%
    01:00 +23°C° 0.1 mm 2 mps 688 mmHg 70%
    02:00 +21°C° 0.1 mm 2 mps 687 mmHg 72%
    03:00 +21°C° 0.1 mm 2 mps 687 mmHg 74%
    04:00 +21°C° 0.1 mm 2 mps 688 mmHg 72%
    05:00 +23°C° 0.1 mm 2 mps 688 mmHg 70%
    06:00 +23°C° 0.1 mm 2 mps 688 mmHg 68%
    07:00 +25°C° 0 mm 2 mps 688 mmHg 60%
    08:00 +27°C° 0 mm 2 mps 688 mmHg 51%
    09:00 +29°C° 0 mm 2 mps 688 mmHg 43%
    10:00 +30°C° 0.2 mm 2 mps 688 mmHg 40%
    11:00 +31°C° 0.2 mm 2 mps 688 mmHg 37%
    12:00 +34°C° 0.2 mm 2 mps 688 mmHg 33%
    13:00 +34°C° 0.4 mm 2 mps 688 mmHg 34%
    14:00 +34°C° 0.4 mm 2 mps 687 mmHg 34%
    15:00 +35°C° 0.4 mm 2 mps 687 mmHg 34%
    16:00 +34°C° 0.5 mm 3 mps 687 mmHg 36%
    17:00 +33°C° 0.5 mm 3 mps 687 mmHg 39%
    18:00 +31°C° 0.5 mm 3 mps 687 mmHg 41%
    19:00 +29°C° 0.3 mm 3 mps 688 mmHg 48%
    20:00 +26°C° 0.3 mm 3 mps 688 mmHg 54%
    21:00 +24°C° 0.3 mm 2 mps 688 mmHg 61%
    22:00 +24°C° 0.1 mm 2 mps 688 mmHg 63%
    23:00 +23°C° 0.1 mm 2 mps 689 mmHg 65%

    1 July, Saturday

    Time Temperature Precipitation Wind Pressure Humidity
    00:00 +21°C° 0.1 mm 2 mps 689 mmHg 67%
    01:00 +21°C° 0 mm 2 mps 689 mmHg 69%
    02:00 +20°C° 0 mm 2 mps 689 mmHg 70%
    03:00 +19°C° 0 mm 2 mps 689 mmHg 72%
    04:00 +20°C° 0 mm 2 mps 689 mmHg 69%
    05:00 +21°C° 0 mm 2 mps 689 mmHg 67%
    06:00 +21°C° 0 mm 2 mps 690 mmHg 64%
    07:00 +24°C° 0 mm 2 mps 690 mmHg 54%
    08:00 +27°C° 0 mm 1 mps 690 mmHg 45%
    09:00 +29°C° 0 mm 1 mps 690 mmHg 35%
    10:00 +31°C° 0 mm 1 mps 690 mmHg 31%
    11:00 +32°C° 0 mm 1 mps 690 mmHg 27%
    12:00 +35°C° 0 mm 2 mps 690 mmHg 22%
    13:00 +35°C° 0 mm 2 mps 690 mmHg 22%
    14:00 +36°C° 0 mm 2 mps 689 mmHg 21%
    15:00 +36°C° 0 mm 2 mps 689 mmHg 21%
    16:00 +35°C° 0.1 mm 2 mps 689 mmHg 23%
    17:00 +34°C° 0.1 mm 3 mps 689 mmHg 26%
    18:00 +33°C° 0.1 mm 3 mps 689 mmHg 28%
    19:00 +30°C° 0 mm 3 mps 690 mmHg 34%
    20:00 +27°C° 0 mm 2 mps 690 mmHg 40%
    21:00 +25°C° 0 mm 2 mps 690 mmHg 46%
    22:00 +24°C° 0 mm 2 mps 690 mmHg 48%
    23:00 +23°C° 0 mm 2 mps 690 mmHg 50%

    2 July, Sunday

    Time Temperature Precipitation Wind Pressure Humidity
    00:00 +21°C° 0 mm 2 mps 690 mmHg 52%
    01:00 +21°C° 0 mm 2 mps 690 mmHg 52%
    02:00 +20°C° 0 mm 2 mps 690 mmHg 53%
    03:00 +20°C° 0 mm 2 mps 690 mmHg 53%
    04:00 +21°C° 0 mm 1 mps 690 mmHg 51%
    05:00 +22°C° 0 mm 1 mps 690 mmHg 49%
    06:00 +23°C° 0 mm 1 mps 690 mmHg 47%
    07:00 +26°C° 0 mm 1 mps 690 mmHg 40%
    08:00 +28°C° 0 mm 1 mps 691 mmHg 33%
    09:00 +31°C° 0 mm 1 mps 691 mmHg 26%
    10:00 +32°C° 0 mm 2 mps 691 mmHg 24%
    11:00 +35°C° 0 mm 2 mps 690 mmHg 21%
    12:00 +36°C° 0 mm 3 mps 690 mmHg 19%
    13:00 +37°C° 0 mm 3 mps 690 mmHg 19%
    14:00 +37°C° 0 mm 3 mps 689 mmHg 18%
    15:00 +38°C° 0 mm 3 mps 689 mmHg 18%
    16:00 +37°C° 0 mm 3 mps 689 mmHg 21%
    17:00 +36°C° 0 mm 3 mps 689 mmHg 24%
    18:00 +35°C° 0 mm 3 mps 689 mmHg 26%
    19:00 +31°C° 0.1 mm 3 mps 689 mmHg 34%
    20:00 +28°C° 0.1 mm 2 mps 689 mmHg 42%
    21:00 +26°C° 0.1 mm 2 mps 689 mmHg 50%
    22:00 +25°C° 0.1 mm 2 mps 689 mmHg 53%
    23:00 +24°C° 0.1 mm 2 mps 689 mmHg 55%

    3 July, Monday

    Time Temperature Precipitation Wind Pressure Humidity
    00:00 +23°C° 0.1 mm 1 mps 689 mmHg 57%
    01:00 +23°C° 0.1 mm 1 mps 689 mmHg 58%
    02:00 +23°C° 0.1 mm 1 mps 688 mmHg 58%
    03:00 +22°C° 0.1 mm 1 mps 688 mmHg 59%
    04:00 +23°C° 0 mm 1 mps 688 mmHg 57%
    05:00 +24°C° 0 mm 1 mps 689 mmHg 55%
    06:00 +25°C° 0 mm 1 mps 689 mmHg 53%
    07:00 +27°C° 0 mm 1 mps 689 mmHg 45%
    08:00 +30°C° 0 mm 1 mps 689 mmHg 38%
    09:00 +32°C° 0 mm 1 mps 689 mmHg 30%
    10:00 +34°C° 0 mm 1 mps 689 mmHg 27%
    11:00 +36°C° 0 mm 2 mps 689 mmHg 24%
    12:00 +38°C° 0 mm 2 mps 688 mmHg 21%
    13:00 +38°C° 0 mm 2 mps 688 mmHg 20%
    14:00 +39°C° 0 mm 2 mps 688 mmHg 19%
    15:00 +39°C° 0 mm 2 mps 687 mmHg 18%
    16:00 +38°C° 0.1 mm 2 mps 687 mmHg 21%
    17:00 +36°C° 0.1 mm 1 mps 687 mmHg 24%
    18:00 +36°C° 0.1 mm 1 mps 687 mmHg 27%
    19:00 +33°C° 0.3 mm 1 mps 687 mmHg 34%
    20:00 +30°C° 0.3 mm 1 mps 687 mmHg 41%
    21:00 +27°C° 0.3 mm 1 mps 687 mmHg 48%
    22:00 +26°C° 0.2 mm 1 mps 687 mmHg 51%
    23:00 +26°C° 0.2 mm 1 mps 687 mmHg 53%
    Show more